Погода в Костенкове

Россия / Кемеровская область (Кузбасс)     53°38′07″N   86°49′37″E
темп.,
°C
ветер,
м/с
пор.,
м/с
влажн.,
%
обл.,
%
осадки,
мм/ч
давл.,
гПа
погр.,
м
27 февраля, сб
сб2701:00−23юз41095100 0.2 1039624
04:00−23юз4996100 0.2 1039638
07:00−23юз41095100 0.3 1039592
10:00−22юз51091100 0.1 1039761
13:00−19юз61087100 0.1 1039925
16:00−18зюз5886100 0.1 10381002
19:00−20юз3595100 0.1 1039144
22:00−22ююз3598100 0.0 1040126
28 февраля, вс
вс2801:00−24юз2398100 0.1 104035
04:00−26ююз2210098 0.0 104019
07:00−24ююв1210095 0.1 104020
10:00−20ююв239799 0.0 1039136
13:00−13ю368094 0.0 1036660
16:00−10ю357299 0.0 10321009
19:00−12юв238499 0.0 103043
22:00−12юв3488100 0.0 1027120
1 марта, пн
пн101:00−11ююв4995100 0.3 1024293
04:00−9ююв41095100 1.0 1020355
07:00−7ююв41195100 2.7 1017467
10:00−5ююз61195100 2.4 1015834
13:00−4юз71391100 3.6 10131205
16:00−3юз81493100 1.1 10121054
19:00−3юз71593100 1.8 1010894
22:00−3юз71594100 1.4 1010945
2 марта, вт
вт201:00−3зюз91693100 3.3 1010997
04:00−3зюз8159197 0.6 1011895
07:00−4зюз6129492 1.1 1014682
10:00−4зюз5109394 0.6 1015760
13:00−3зюз7128996 0.9 10151097
16:00−3зюз71189100 0.3 10151059
19:00−6зюз379495 0.3 1015192
22:00−8юз239697 0.0 101634
3 марта, ср
ср301:00−8ююз129699 0.1 101423
04:00−6ю1197100 0.7 101221
07:00−6всв1197100 1.9 101222
10:00−5св1196100 1.8 1011120
13:00−3з2590100 2.3 1012622
16:00−3зюз6990100 0.7 1013910
19:00−8з7128998 0.9 1016608
22:00−12зюз6129093 0.1 1020433